Sioux City, IA

1:55 AM CST on December 14, 2019 (GMT -0600)
Sioux Gateway

Weather History for KSUX - October, 2019

Change the Weather History Date:

Wednesday, October 2, 2019

  Actual Average Record
Temperature  
Mean Temperature 50 °F 56 °F  
Max Temperature 52 °F 70 °F 94 °F (1997)
Min Temperature 47 °F 43 °F 24 °F (2004)
Degree Days  
Heating Degree Days 16 9  
Month to date heating degree days 24 18  
Since 1 July heating degree days 60 165  
Cooling Degree Days 0 1  
Month to date cooling degree days 0 2  
Year to date cooling degree days 910 863  
Moisture  
Dew Point 48 °F    
Average Humidity 93    
Maximum Humidity 96    
Minimum Humidity 86    
Precipitation  
Precipitation 0.17 in 0.10 in 1.50 in (2017)
Month to date precipitation 1.76 0.19  
Year to date precipitation 29.87 23.69  
Snow  
Snow 0.00 in 0.00 in 0.00 in ()
Month to date snowfall 0.0 0.0  
Since 1 July snowfall 0.0 0.0  
Since 1 September snowfall 0.0 0.0  
Snow Depth 0.00 in    
Sea Level Pressure  
Sea Level Pressure 30.02 in    
Wind  
Wind Speed 9 mph ()    
Max Wind Speed 17 mph    
Max Gust Speed 24 mph    
Visibility 8.5 miles    
Events Rain    
T = Trace of Precipitation, MM = Missing Value Source: Averaged Metar Reports

Daily Weather History Graph

Daily Weather History Graph

Search for Another Location

Airport or City:

Astronomy

Oct. 02, 2019 Rise Set
Actual Time 7:23 AM CDT 7:05 PM CDT
Civil Twilight 6:55 AM CDT 7:33 PM CDT
Nautical Twilight 6:22 AM CDT 8:06 PM CDT
Astronomical Twilight 5:49 AM CDT 8:38 PM CDT
Moon 11:55 AM CDT (10/2) 9:55 PM CDT (10/2)
Length of Visible Light 12h 38m
Length of Day
11h 42m
Waxing Crescent, 20% of the Moon is Illuminated
Oct 2
Waxing Crescent
Oct 5
First Quarter
Oct 13
Full
Oct 21
Last Quarter
Oct 27
New

Hourly Weather History & Observations

Time (CDT) Temp. Dew Point Humidity Pressure Visibility Wind Dir Wind Speed Gust Speed Precip Events Conditions
12:52 AM 50.0 °F 48.9 °F 96% 29.99 in 10.0 mi North 13.8 mph 21.9 mph N/A   Overcast
1:52 AM 50.0 °F 48.0 °F 93% 30.00 in 10.0 mi North 11.5 mph - N/A   Overcast
2:52 AM 50.0 °F 48.9 °F 96% 30.02 in 6.0 mi North 10.4 mph - N/A   Overcast
3:52 AM 50.0 °F 48.9 °F 96% 30.02 in 9.0 mi NNE 8.1 mph - N/A   Overcast
4:52 AM 50.0 °F 48.0 °F 93% 30.02 in 9.0 mi NNE 9.2 mph - N/A   Overcast
5:52 AM 50.0 °F 48.0 °F 93% 30.03 in 10.0 mi NNE 9.2 mph - N/A   Overcast
6:52 AM 50.0 °F 48.0 °F 93% 30.02 in 10.0 mi NE 8.1 mph - N/A   Overcast
7:52 AM 50.0 °F 48.0 °F 93% 30.01 in 10.0 mi ENE 10.4 mph - N/A   Overcast
8:52 AM 50.0 °F 48.0 °F 93% 30.02 in 10.0 mi NE 6.9 mph - N/A   Overcast
9:52 AM 50.0 °F 48.0 °F 93% 30.03 in 10.0 mi NE 9.2 mph - N/A   Overcast
10:45 AM 50.0 °F 48.0 °F 93% 30.02 in 2.5 mi NNE 10.4 mph - 0.03 in Rain Heavy Rain
10:52 AM 50.0 °F 48.0 °F 93% 30.02 in 2.0 mi NNE 9.2 mph - 0.09 in Rain Rain
10:57 AM 50.0 °F 48.9 °F 96% 30.01 in 5.0 mi NNE 8.1 mph - 0.01 in Rain Light Rain
11:10 AM 50.0 °F 48.9 °F 96% 30.01 in 10.0 mi NNE 9.2 mph - 0.01 in Rain Light Rain
11:22 AM 50.0 °F 48.9 °F 96% 30.03 in 8.0 mi North 5.8 mph - 0.01 in Rain Light Rain
11:52 AM 50.0 °F 48.9 °F 96% 30.02 in 4.0 mi NNE 8.1 mph - 0.04 in Rain Light Rain
12:05 PM 50.0 °F 48.0 °F 93% 30.02 in 8.0 mi NNE 10.4 mph - 0.01 in Rain Light Rain
12:41 PM 51.1 °F 48.9 °F 92% 29.99 in 10.0 mi North 11.5 mph - 0.01 in   Overcast
12:52 PM 51.1 °F 48.0 °F 89% 30.01 in 9.0 mi NNE 8.1 mph - 0.01 in Rain Light Rain
1:32 PM 51.1 °F 48.9 °F 92% 29.98 in 10.0 mi North 8.1 mph - 0.03 in   Overcast
1:52 PM 51.1 °F 48.9 °F 92% 30.00 in 7.0 mi North 5.8 mph - 0.03 in   Overcast
2:35 PM 51.1 °F 48.9 °F 92% 29.98 in 2.5 mi North 8.1 mph - 0.00 in Rain Light Rain
2:52 PM 51.1 °F 48.9 °F 92% 29.99 in 3.0 mi North 9.2 mph - 0.00 in Rain Light Rain
3:52 PM 52.0 °F 48.9 °F 89% 29.98 in 10.0 mi North 9.2 mph - 0.00 in   Overcast
4:03 PM 52.0 °F 48.9 °F 89% 29.97 in 10.0 mi North 8.1 mph - N/A   Overcast
4:11 PM 52.0 °F 48.9 °F 89% 29.97 in 10.0 mi North 8.1 mph - N/A   Overcast
4:29 PM 52.0 °F 50.0 °F 93% 29.97 in 10.0 mi NW 8.1 mph - N/A   Overcast
4:45 PM 52.0 °F 50.0 °F 93% 29.97 in 10.0 mi NNW 8.1 mph - N/A   Overcast
4:52 PM 52.0 °F 50.0 °F 93% 29.99 in 10.0 mi NW 6.9 mph - N/A   Overcast
5:52 PM 50.0 °F 48.9 °F 96% 30.00 in 4.0 mi NW 9.2 mph - 0.00 in   Overcast
6:11 PM 50.0 °F 48.9 °F 96% 29.99 in 4.0 mi NW 11.5 mph - N/A   Overcast
6:52 PM 50.0 °F 48.0 °F 93% 30.01 in 10.0 mi NW 9.2 mph - N/A   Overcast
6:59 PM 50.0 °F 48.9 °F 96% 30.00 in 10.0 mi NW 10.4 mph - N/A   Overcast
7:14 PM 50.0 °F 48.0 °F 93% 30.01 in 10.0 mi WNW 10.4 mph - N/A   Overcast
7:24 PM 50.0 °F 48.0 °F 93% 30.01 in 10.0 mi WNW 10.4 mph - N/A   Overcast
7:48 PM 50.0 °F 48.2 °F 94% 30.03 in 10.0 mi WNW 9.2 mph - 0.00 in Rain Light Rain
7:52 PM 50.0 °F 48.0 °F 93% 30.04 in 10.0 mi WNW 8.1 mph - 0.00 in Rain Light Rain
8:01 PM 48.9 °F 46.9 °F 93% 30.03 in 10.0 mi WNW 9.2 mph - 0.00 in   Mostly Cloudy
8:52 PM 48.0 °F 46.9 °F 96% 30.06 in 10.0 mi WNW 10.4 mph - 0.00 in   Mostly Cloudy
9:20 PM 48.9 °F 46.9 °F 93% 30.05 in 9.0 mi WNW 10.4 mph - N/A   Overcast
9:49 PM 48.2 °F 46.4 °F 93% 30.07 in 10.0 mi WNW 12.7 mph - 0.00 in   Overcast
9:50 PM 48.2 °F 46.4 °F 93% 30.07 in 10.0 mi WNW 11.5 mph - 0.00 in   Overcast
9:52 PM 48.0 °F 46.0 °F 93% 30.08 in 10.0 mi WNW 11.5 mph - 0.00 in   Overcast
10:52 PM 48.0 °F 45.0 °F 89% 30.09 in 10.0 mi WNW 11.5 mph - N/A   Overcast
11:52 PM 48.0 °F 45.0 °F 89% 30.11 in 10.0 mi WNW 10.4 mph - N/A   Overcast